Etusivu
METAR-TAF:

METAR-TAF

Lentoasemat :

Tri-County Regional Airport

Lone Rock, Wisconsin, Yhdysvallat

Leveyspiiri: 43-12-43N, Pituuspiiri: 090-10-53W, korkeus merenpinnasta: 219 m

Tämänhetkinen sää

Tämä raportti tehtiin 1 tunti ja 0 minuuttia sitten, kello 08.56 UTC
Tuuli 8 kn etelästä
Lämpötila -9°C
Kosteus 57%
Ilmanpaine 1022 hPa
Näkyvyys: 16.1 km
selkeää

METAR: KLNR 130856Z AUTO 17008KT 10SM CLR M09/M16 A3017 RMK AO2 SLP223 T10941156 58033

Aika: 03:56 (09:56 UTC)


TAF: puuttuu

Säähavainnot ja -ennusteet yli 4000 lentoasemalta (METAR- ja TAF-raportit).

Käytössä olevat sääasemat on merkitty karttaan keltaisilla ja punaisilla pisteillä.

Aseta hiiri pisteen päälle nähdäksesi sääaseman nimen.

Klikkaa sitten nähdäksesi säähavainnot ja -ennusteet.

Kartan vaihtaminen: klikkaa mustalla rastilla varustettuja vihreitä pisteitä, niin voit zoomata sisään; viivalla varustettua vihreää pistettä, niin voit zoomata ulos tai vihreitä nuolia, niin pääset viereisille kartoille.


METAR-TAF: